TimeCDT,TemperatureF,Dew PointF,Humidity,Sea Level PressureIn,VisibilityMPH,Wind Direction,Wind SpeedMPH,Gust SpeedMPH,PrecipitationIn,Events,Conditions,WindDirDegrees,DateUTC
12:53 AM,44.1,41.0,89,29.77,6.0,ESE,4.6,-,N/A,,Overcast,120,2013-03-18 05:53:00
1:53 AM,46.0,43.0,89,29.75,8.0,Calm,Calm,-,N/A,,Overcast,0,2013-03-18 06:53:00
2:53 AM,48.0,44.1,86,29.72,9.0,Calm,Calm,-,N/A,,Overcast,0,2013-03-18 07:53:00
3:53 AM,61.0,53.1,75,29.68,10.0,South,19.6,25.3,N/A,,Mostly Cloudy,180,2013-03-18 08:53:00
4:30 AM,53.6,46.4,77,29.71,10.0,Variable,4.6,17.3,N/A,,Overcast,0,2013-03-18 09:30:00
4:51 AM,51.8,46.4,82,29.70,10.0,Calm,Calm,-,N/A,Thunderstorm,Overcast,0,2013-03-18 09:51:00
4:53 AM,52.0,46.9,83,29.69,10.0,Variable,4.6,-,N/A,Thunderstorm,Overcast,0,2013-03-18 09:53:00
5:04 AM,51.8,46.4,82,29.69,9.0,ESE,5.8,-,N/A,Thunderstorm,Overcast,120,2013-03-18 10:04:00
5:18 AM,46.4,42.8,87,29.73,8.0,NW,20.7,31.1,0.00,Rain-Thunderstorm,Light Rain,320,2013-03-18 10:18:00
5:30 AM,44.6,39.2,81,29.75,7.0,NNW,17.3,27.6,0.03,Rain-Thunderstorm,Light Thunderstorms and Rain,340,2013-03-18 10:30:00
5:39 AM,42.8,39.2,87,29.74,1.8,North,13.8,24.2,0.25,Rain-Thunderstorm,Heavy Thunderstorms and Rain,10,2013-03-18 10:39:00
5:49 AM,42.8,39.2,87,29.75,3.0,NE,10.4,18.4,0.33,Rain-Thunderstorm,Heavy Thunderstorms and Rain,40,2013-03-18 10:49:00
6:13 AM,42.8,41.0,93,29.75,1.8,North,4.6,-,0.19,Rain-Thunderstorm,Heavy Thunderstorms and Rain,360,2013-03-18 11:13:00
6:23 AM,42.8,41.0,93,29.72,3.0,East,9.2,-,0.21,Rain-Thunderstorm,Light Thunderstorms and Rain,100,2013-03-18 11:23:00
6:39 AM,44.6,42.8,93,29.75,7.0,Variable,4.6,-,0.24,Rain,Light Rain,0,2013-03-18 11:39:00
6:46 AM,44.6,42.8,93,29.74,10.0,East,5.8,-,0.24,Rain,Light Rain,90,2013-03-18 11:46:00
6:53 AM,44.1,42.1,93,29.73,8.0,East,6.9,-,0.25,Rain,Light Rain,80,2013-03-18 11:53:00
7:04 AM,44.6,42.8,93,29.74,6.0,SSW,8.1,-,0.01,Rain-Thunderstorm,Light Thunderstorms and Rain,210,2013-03-18 12:04:00
7:28 AM,46.4,44.6,93,29.73,2.0,Calm,Calm,-,0.11,Rain-Thunderstorm,Thunderstorms and Rain,0,2013-03-18 12:28:00
7:34 AM,46.4,44.6,93,29.74,3.0,Calm,Calm,-,0.13,Rain-Thunderstorm,Thunderstorms and Rain,0,2013-03-18 12:34:00
7:41 AM,46.4,44.6,93,29.73,2.0,Calm,Calm,-,0.18,Rain-Thunderstorm,Heavy Thunderstorms and Rain,0,2013-03-18 12:41:00
7:53 AM,46.0,44.1,93,29.74,3.0,SSW,3.5,-,0.20,Rain-Thunderstorm,Thunderstorms and Rain,200,2013-03-18 12:53:00
8:02 AM,46.4,44.6,93,29.72,3.0,Calm,Calm,-,0.03,Rain-Thunderstorm,Rain,0,2013-03-18 13:02:00
8:29 AM,46.4,46.4,100,29.69,4.0,Calm,Calm,-,0.06,Rain-Thunderstorm,Light Rain,0,2013-03-18 13:29:00
8:36 AM,46.4,44.6,93,29.72,1.8,South,5.8,-,0.07,Rain-Thunderstorm,Light Rain,170,2013-03-18 13:36:00
8:43 AM,46.4,46.4,100,29.73,1.2,South,5.8,-,0.11,Rain-Thunderstorm,Heavy Thunderstorms and Rain,180,2013-03-18 13:43:00
8:51 AM,48.2,46.4,93,29.73,1.5,South,5.8,-,0.16,Rain-Thunderstorm,Thunderstorms and Rain,180,2013-03-18 13:51:00
8:53 AM,48.0,46.9,96,29.76,1.8,South,10.4,-,0.18,Rain-Thunderstorm,Heavy Thunderstorms and Rain,190,2013-03-18 13:53:00
9:00 AM,48.2,48.2,100,29.73,0.8,Calm,Calm,-,0.11,Rain-Thunderstorm,Heavy Thunderstorms and Rain,0,2013-03-18 14:00:00
9:10 AM,50.0,48.2,94,29.76,1.0,South,8.1,-,0.27,Rain-Thunderstorm,Heavy Thunderstorms and Rain,190,2013-03-18 14:10:00
9:15 AM,51.8,48.2,88,29.75,1.5,South,10.4,-,0.29,Rain-Thunderstorm,Heavy Thunderstorms and Rain,190,2013-03-18 14:15:00
9:25 AM,53.6,50.0,88,29.75,2.5,SSW,8.1,-,0.33,Rain-Thunderstorm,Heavy Thunderstorms and Rain,210,2013-03-18 14:25:00
9:44 AM,53.6,51.8,94,29.73,3.0,SSE,5.8,-,0.42,Rain,Rain,160,2013-03-18 14:44:00
9:53 AM,53.1,51.1,93,29.72,2.5,SSE,9.2,-,0.48,Rain,Heavy Rain,160,2013-03-18 14:53:00
10:01 AM,53.6,51.8,94,29.74,3.0,South,11.5,-,0.03,Rain-Thunderstorm,Thunderstorms and Rain,190,2013-03-18 15:01:00
10:53 AM,55.0,52.0,89,29.74,5.0,South,11.5,-,0.14,Rain,Light Rain,190,2013-03-18 15:53:00
10:58 AM,55.4,53.6,94,29.72,7.0,South,9.2,-,0.01,Rain,Light Rain,180,2013-03-18 15:58:00
11:06 AM,55.4,53.6,94,29.72,10.0,SSW,9.2,-,0.01,Rain,Light Rain,200,2013-03-18 16:06:00
11:15 AM,55.4,53.6,94,29.73,10.0,SSW,11.5,-,0.01,Thunderstorm,Overcast,200,2013-03-18 16:15:00
11:24 AM,55.4,53.6,94,29.73,10.0,SSW,10.4,-,0.01,,Overcast,210,2013-03-18 16:24:00
11:53 AM,57.0,53.1,87,29.73,10.0,SW,11.5,-,0.01,,Overcast,230,2013-03-18 16:53:00
12:03 PM,55.4,53.6,94,29.72,9.0,West,10.4,-,N/A,,Overcast,260,2013-03-18 17:03:00
12:53 PM,55.0,52.0,89,29.74,8.0,WSW,5.8,-,N/A,,Overcast,250,2013-03-18 17:53:00
1:53 PM,55.9,52.0,87,29.74,8.0,West,9.2,-,N/A,,Overcast,260,2013-03-18 18:53:00
2:19 PM,57.2,50.0,77,29.73,10.0,WSW,17.3,20.7,N/A,,Overcast,240,2013-03-18 19:19:00
2:53 PM,57.9,50.0,75,29.71,10.0,WSW,11.5,-,N/A,,Mostly Cloudy,240,2013-03-18 19:53:00
3:53 PM,57.0,48.9,74,29.73,10.0,WSW,9.2,-,N/A,,Overcast,250,2013-03-18 20:53:00
4:53 PM,57.0,48.0,72,29.77,10.0,West,9.2,-,N/A,,Overcast,280,2013-03-18 21:53:00
5:53 PM,54.0,46.0,75,29.81,10.0,WNW,8.1,-,N/A,,Overcast,290,2013-03-18 22:53:00
6:53 PM,52.0,44.1,74,29.84,10.0,NW,9.2,19.6,N/A,,Overcast,310,2013-03-18 23:53:00
7:46 PM,50.0,42.8,76,29.86,10.0,NW,10.4,-,N/A,,Mostly Cloudy,310,2013-03-19 00:46:00
7:53 PM,50.0,42.1,74,29.87,10.0,WNW,11.5,18.4,N/A,,Overcast,300,2013-03-19 00:53:00
8:19 PM,48.2,39.2,71,29.88,10.0,NNW,9.2,20.7,N/A,,Scattered Clouds,330,2013-03-19 01:19:00
8:53 PM,46.9,37.9,71,29.92,10.0,WNW,9.2,-,N/A,,Mostly Cloudy,300,2013-03-19 01:53:00
9:53 PM,45.0,35.1,68,29.95,10.0,NW,4.6,-,N/A,,Clear,310,2013-03-19 02:53:00
10:53 PM,43.0,35.1,74,29.96,10.0,Calm,Calm,-,N/A,,Clear,0,2013-03-19 03:53:00
11:53 PM,41.0,35.1,79,29.99,10.0,SW,3.5,-,N/A,,Clear,220,2013-03-19 04:53:00